TimeAKDT,TemperatureF,Dew PointF,Humidity,Sea Level PressureIn,VisibilityMPH,Wind Direction,Wind SpeedMPH,Gust SpeedMPH,PrecipitationIn,Events,Conditions,WindDirDegrees,DateUTC
12:53 AM,57.9,52.0,81,30.12,10.0,Calm,Calm,-,N/A,,Scattered Clouds,0,2013-07-15 08:53:00
1:53 AM,55.0,48.9,80,30.12,10.0,Calm,Calm,-,N/A,,Scattered Clouds,0,2013-07-15 09:53:00
2:53 AM,54.0,50.0,86,30.14,10.0,Calm,Calm,-,N/A,,Scattered Clouds,0,2013-07-15 10:53:00
3:53 AM,54.0,48.9,83,30.14,10.0,Calm,Calm,-,N/A,,Scattered Clouds,0,2013-07-15 11:53:00
4:53 AM,54.0,51.1,90,30.15,10.0,Calm,Calm,-,N/A,,Scattered Clouds,0,2013-07-15 12:53:00
5:53 AM,55.0,50.0,83,30.15,10.0,Calm,Calm,-,N/A,,Scattered Clouds,0,2013-07-15 13:53:00
6:53 AM,62.1,53.1,72,30.15,10.0,Calm,Calm,-,N/A,,Overcast,0,2013-07-15 14:53:00
7:53 AM,64.0,53.1,67,30.15,10.0,Calm,Calm,-,N/A,,Mostly Cloudy,0,2013-07-15 15:53:00
8:53 AM,66.0,54.0,65,30.16,10.0,Calm,Calm,-,N/A,,Mostly Cloudy,0,2013-07-15 16:53:00
9:53 AM,68.0,54.0,61,30.16,10.0,Calm,Calm,-,N/A,,Mostly Cloudy,0,2013-07-15 17:53:00
10:53 AM,75.0,53.1,46,30.15,10.0,Calm,Calm,-,N/A,,Scattered Clouds,0,2013-07-15 18:53:00
11:53 AM,78.1,51.1,39,30.14,10.0,North,6.9,-,N/A,,Scattered Clouds,350,2013-07-15 19:53:00
12:53 PM,81.0,50.0,34,30.13,10.0,NW,4.6,-,N/A,,Scattered Clouds,310,2013-07-15 20:53:00
1:53 PM,82.0,48.9,31,30.12,10.0,West,8.1,-,N/A,,Scattered Clouds,280,2013-07-15 21:53:00
2:53 PM,81.0,48.9,33,30.11,10.0,SSW,8.1,-,N/A,,Scattered Clouds,200,2013-07-15 22:53:00
3:53 PM,80.1,48.0,32,30.09,10.0,SSW,8.1,-,N/A,,Mostly Cloudy,210,2013-07-15 23:53:00
4:53 PM,82.0,48.0,30,30.07,10.0,Variable,3.5,-,N/A,,Mostly Cloudy,0,2013-07-16 00:53:00
5:53 PM,82.9,48.9,31,30.05,10.0,Calm,Calm,-,N/A,,Mostly Cloudy,0,2013-07-16 01:53:00
6:53 PM,82.9,48.0,29,30.03,10.0,Variable,3.5,-,N/A,,Mostly Cloudy,0,2013-07-16 02:53:00
7:53 PM,79.0,48.0,34,30.03,10.0,Calm,Calm,-,N/A,,Partly Cloudy,0,2013-07-16 03:53:00
8:53 PM,75.9,50.0,40,30.04,10.0,Variable,5.8,-,N/A,,Overcast,0,2013-07-16 04:53:00
9:53 PM,73.9,51.1,45,30.05,10.0,Calm,Calm,-,N/A,,Mostly Cloudy,0,2013-07-16 05:53:00
10:53 PM,70.0,48.9,47,30.05,10.0,NNE,5.8,-,N/A,,Mostly Cloudy,30,2013-07-16 06:53:00
11:53 PM,66.9,48.0,51,30.05,10.0,North,3.5,-,N/A,,Mostly Cloudy,10,2013-07-16 07:53:00